User: anonymous   Login
Location: *
(37.5724°S, 58.0067°E)
Time: 02:32:29
(UTC+00:00)
Language:

Cosmos 2026 Rocket - Orbit

View from above orbital plane
View from above orbital plane
View from above satellite
View from above satellite

Ground track
Ground track

The orbit data is extracted from the following two-line orbital elements,

1 20046U 89042B   20329.23879298 -.00000014 +00000-0 -28861-4 0  9995
2 20046 082.9372 087.0644 0042819 145.1750 215.2224 13.78204137582055
Epoch (UTC): 24 November 2020 05:43:51
Eccentricity: 0.0042819
inclination: 82.9372°
perigee height: 939 km
apogee height: 1002 km
right ascension of ascending node: 87.0644°
argument of perigee: 145.1750°
revolutions per day: 13.78204137
mean anomaly at epoch: 215.2224°
orbit number at epoch: 58205

The dashed part of the orbit path shows where the satellite is in the earth's shadow,  

DLR